Weather History for Metropolis, IL

Change the Weather History Date:

Wednesday, October 9, 2013

  Actual Average (KPAH) Record (KPAH)
Temperature  
Mean Temperature 61 °F 61 °F  
Max Temperature 77 °F 73 °F 91 °F (1939)
Min Temperature 46 °F 49 °F 30 °F (2000)
Degree Days  
Heating Degree Days 4 6  
Month to date heating degree days 44  
Since 1 July heating degree days 83  
Cooling Degree Days 0 2  
Month to date cooling degree days 19  
Year to date cooling degree days 1519  
Growing Degree Days 11 (Base 50)    
Moisture  
Dew Point 55 °F    
Average Humidity 85    
Maximum Humidity 100    
Minimum Humidity 53    
Precipitation  
Precipitation 0.00 in 0.13 in 1.99 in (1970)
Month to date precipitation 1.21  
Year to date precipitation 37.44  
Snow  
Snow 0.00 in 0.00 in 0.00 in (2002)
Month to date snowfall 0.0  
Since 1 July snowfall 0.0  
Since 1 September snowfall 0.0  
Snow Depth -    
Sea Level Pressure  
Sea Level Pressure 30.13 in    
Wind  
Wind Speed 0 mph (WSW)    
Max Wind Speed 5 mph    
Max Gust Speed -    
Visibility 9 miles    
Events      
T = Trace of Precipitation, MM = Missing Value Source: NWS Daily Summary

Daily Weather History Graph

Daily Weather History Graph

Search for Another Location

Airport:

Trip Planner

Search our weather history database for the weather conditions in past years. The results will help you decide how hot, cold, wet, or windy it might be!

Date:

Astronomy

Oct. 09, 2013 Rise Set
Actual Time 6:57 AM CDT 6:26 PM CDT
Civil Twilight 6:31 AM CDT 6:52 PM CDT
Nautical Twilight 6:01 AM CDT 7:22 PM CDT
Astronomical Twilight 5:31 AM CDT 7:52 PM CDT
Moon 11:47 AM CDT (10/9) 10:05 PM CDT (10/9)
Length of Visible Light 12h 20m
Length of Day
11h 28m
Waxing Crescent, 25% of the Moon is Illuminated
Oct 9
Waxing Crescent
Oct 11
First Quarter
Oct 18
Full
Oct 26
Last Quarter
Nov 3
New

Hourly Weather History & Observations

Time (CDT) Temp. Dew Point Humidity Pressure Visibility Wind Dir Wind Speed Gust Speed Precip Events Conditions
12:15 AM 50.0 °F 48.6 °F 95% 30.13 in 10.0 mi Calm Calm - N/A   Clear
12:35 AM 49.5 °F 48.6 °F 97% 30.12 in 10.0 mi Calm Calm - N/A   Clear
12:55 AM 49.3 °F 48.6 °F 97% 30.12 in 10.0 mi Calm Calm - N/A   Clear
1:15 AM 48.0 °F 48.0 °F 100% 30.12 in 10.0 mi Calm Calm - N/A   Clear
1:35 AM 48.9 °F 48.9 °F 100% 30.12 in 10.0 mi Calm Calm - N/A   Clear
1:55 AM 48.0 °F 48.0 °F 100% 30.12 in 10.0 mi Calm Calm - N/A   Clear
2:15 AM 48.2 °F 48.2 °F 100% 30.12 in 10.0 mi Calm Calm - N/A   Clear
2:35 AM 47.8 °F 47.8 °F 100% 30.11 in 10.0 mi Calm Calm - N/A   Clear
2:55 AM 47.8 °F 47.8 °F 100% 30.11 in 10.0 mi Calm Calm - N/A   Clear
3:15 AM 47.7 °F 47.7 °F 100% 30.11 in 10.0 mi Calm Calm - N/A   Clear
3:35 AM 47.7 °F 47.7 °F 100% 30.11 in 10.0 mi Calm Calm - N/A   Clear
3:55 AM 47.5 °F 47.5 °F 100% 30.11 in 10.0 mi Calm Calm - N/A   Clear
4:15 AM 47.5 °F 47.5 °F 100% 30.11 in 7.0 mi Calm Calm - N/A   Clear
4:35 AM 46.9 °F 46.9 °F 100% 30.11 in 10.0 mi Calm Calm - N/A   Clear
4:55 AM 47.5 °F 47.5 °F 100% 30.12 in 10.0 mi Calm Calm - N/A   Clear
5:15 AM 46.9 °F 46.9 °F 100% 30.12 in 10.0 mi Calm Calm - N/A   Clear
5:35 AM 47.1 °F 47.1 °F 100% 30.12 in 10.0 mi Calm Calm - N/A   Clear
5:55 AM 47.3 °F 47.3 °F 100% 30.12 in 10.0 mi Calm Calm - N/A   Clear
6:15 AM 47.5 °F 47.5 °F 100% 30.13 in 10.0 mi Calm Calm - N/A   Clear
6:35 AM 47.1 °F 47.1 °F 100% 30.13 in 10.0 mi Calm Calm - N/A   Clear
6:55 AM 47.1 °F 47.1 °F 100% 30.14 in 10.0 mi Calm Calm - N/A   Scattered Clouds
7:15 AM 48.4 °F 48.4 °F 100% 30.14 in 10.0 mi Calm Calm - N/A   Mostly Cloudy
7:35 AM 50.0 °F 50.0 °F 100% 30.15 in 10.0 mi Calm Calm - N/A   Mostly Cloudy
7:55 AM 52.0 °F 52.0 °F 100% 30.16 in 10.0 mi Calm Calm - N/A   Scattered Clouds
8:15 AM 54.1 °F 52.7 °F 95% 30.16 in 10.0 mi Calm Calm - N/A   Clear
8:35 AM 55.2 °F 53.4 °F 94% 30.17 in 10.0 mi Calm Calm - N/A   Scattered Clouds
8:55 AM 57.6 °F 52.5 °F 83% 30.17 in 10.0 mi Calm Calm - N/A   Mostly Cloudy
9:15 AM 60.3 °F 53.2 °F 78% 30.17 in 10.0 mi Calm Calm - N/A   Scattered Clouds
9:35 AM 62.2 °F 53.6 °F 73% 30.17 in 10.0 mi Calm Calm - N/A   Clear
9:55 AM 64.0 °F 54.1 °F 70% 30.18 in 10.0 mi Calm Calm - N/A   Clear
10:15 AM 65.7 °F 55.0 °F 69% 30.18 in 10.0 mi Calm Calm - N/A   Scattered Clouds
10:35 AM 66.7 °F 55.8 °F 68% 30.18 in 10.0 mi Calm Calm - N/A   Scattered Clouds
10:55 AM 67.6 °F 56.3 °F 67% 30.18 in 10.0 mi Calm Calm - N/A   Clear
11:15 AM 68.9 °F 57.2 °F 66% 30.17 in 10.0 mi Calm Calm - N/A   Clear
11:35 AM 70.5 °F 58.1 °F 65% 30.17 in 10.0 mi South 4.6 mph - N/A   Clear
11:55 AM 71.6 °F 59.0 °F 64% 30.17 in 10.0 mi SW 3.5 mph - N/A   Clear
12:15 PM 72.3 °F 59.4 °F 64% 30.16 in 10.0 mi West 4.6 mph - N/A   Clear
12:35 PM 73.4 °F 59.9 °F 63% 30.16 in 10.0 mi Calm Calm - N/A   Mostly Cloudy
12:55 PM 73.4 °F 59.9 °F 63% 30.15 in 10.0 mi West 3.5 mph - N/A   Mostly Cloudy
1:15 PM 72.3 °F 59.7 °F 64% 30.14 in 10.0 mi Calm Calm - N/A   Scattered Clouds
1:35 PM 74.7 °F 60.6 °F 61% 30.13 in 10.0 mi West 3.5 mph - N/A   Clear
1:55 PM 75.2 °F 60.6 °F 60% 30.13 in 10.0 mi SSW 4.6 mph - N/A   Scattered Clouds
2:15 PM 75.4 °F 60.3 °F 59% 30.12 in 10.0 mi Calm Calm - N/A   Scattered Clouds
2:35 PM 74.3 °F 60.1 °F 61% 30.12 in 10.0 mi West 3.5 mph - N/A   Scattered Clouds
2:55 PM 74.8 °F 60.1 °F 60% 30.11 in 10.0 mi Calm Calm - N/A   Scattered Clouds
3:15 PM 76.1 °F 59.7 °F 57% 30.11 in 10.0 mi West 3.5 mph - N/A   Clear
3:55 PM 76.1 °F 59.2 °F 56% 30.11 in 10.0 mi Calm Calm - N/A   Scattered Clouds
4:15 PM 75.2 °F 59.4 °F 58% 30.10 in 10.0 mi Calm Calm - N/A   Scattered Clouds
4:35 PM 76.6 °F 58.5 °F 53% 30.10 in 10.0 mi Calm Calm - N/A   Clear
4:55 PM 76.8 °F 58.8 °F 54% 30.10 in 10.0 mi Calm Calm - N/A   Clear
5:15 PM 76.6 °F 59.2 °F 55% 30.10 in 10.0 mi Calm Calm - N/A   Clear
5:35 PM 75.4 °F 60.1 °F 59% 30.10 in 10.0 mi Calm Calm - N/A   Clear
5:55 PM 74.3 °F 61.0 °F 63% 30.09 in 10.0 mi Calm Calm - N/A   Clear
6:15 PM 70.5 °F 61.5 °F 73% 30.09 in 10.0 mi Calm Calm - N/A   Clear
6:55 PM 66.0 °F 60.8 °F 83% 30.10 in 10.0 mi Calm Calm - N/A   Clear
7:15 PM 65.1 °F 62.8 °F 92% 30.10 in 10.0 mi Calm Calm - N/A   Clear
7:35 PM 64.0 °F 63.9 °F 99% 30.11 in 10.0 mi Calm Calm - N/A   Clear
7:55 PM 63.0 °F 63.0 °F 100% 30.11 in 10.0 mi Calm Calm - N/A   Clear
8:15 PM 63.1 °F 63.1 °F 100% 30.11 in 10.0 mi Calm Calm - N/A   Clear
8:35 PM 60.8 °F 60.8 °F 100% 30.11 in 7.0 mi Calm Calm - N/A   Clear
8:55 PM 61.7 °F 61.7 °F 100% 30.11 in 7.0 mi Calm Calm - N/A   Scattered Clouds
9:15 PM 61.3 °F 61.3 °F 100% 30.11 in 7.0 mi Calm Calm - N/A   Scattered Clouds
9:35 PM 61.3 °F 61.3 °F 100% 30.11 in 7.0 mi Calm Calm - N/A   Mostly Cloudy
9:55 PM 61.7 °F 61.7 °F 100% 30.12 in 7.0 mi Calm Calm - N/A   Mostly Cloudy
10:15 PM 61.9 °F 61.9 °F 100% 30.12 in 7.0 mi Calm Calm - N/A   Mostly Cloudy
10:35 PM 60.8 °F 60.8 °F 100% 30.12 in 5.0 mi Calm Calm - N/A   Scattered Clouds
10:55 PM 60.8 °F 60.8 °F 100% 30.12 in 4.0 mi Calm Calm - N/A   Scattered Clouds
11:15 PM 60.3 °F 60.3 °F 100% 30.12 in 3.0 mi Calm Calm - N/A   Scattered Clouds
11:55 PM 60.3 °F 60.3 °F 100% 30.11 in 2.5 mi Calm Calm - N/A   Scattered Clouds